When you browse on this site, cookies collect data to enhance your experience and personalize the content and advertising you see.
Visit our Privacy Policy to learn more. By continuing to use the site, you agree to this use of cookies and data.
  • In Germany
  • List of Countries
  • For 7 days
  • Water Temperature
  • Satellite Maps
  • Weather Map
  • Weather Widgets
  • user-avatar
    Login

    Hourly Weather Melbourne

    Today, 17 February, Sunday

    Time Temperature Precipitation Wind Pressure Humidity
    00:00 +19°C° 0 mm 1 mps 760 mmHg 81%
    01:00 +16°C° 0 mm 0 mps 759 mmHg 83%
    02:00 +16°C° 0 mm 0 mps 759 mmHg 84%
    03:00 +16°C° 0 mm 0 mps 759 mmHg 85%
    04:00 +16°C° 0 mm 0 mps 758 mmHg 87%
    05:00 +17°C° 0 mm 0 mps 758 mmHg 83%
    06:00 +17°C° 0 mm 0 mps 758 mmHg 80%
    07:00 +18°C° 0 mm 0 mps 758 mmHg 76%
    08:00 +21°C° 0 mm 0 mps 758 mmHg 64%
    09:00 +24°C° 0 mm 0 mps 758 mmHg 51%
    10:00 +27°C° 0 mm 0 mps 758 mmHg 39%
    11:00 +30°C° 0 mm 1 mps 757 mmHg 36%
    12:00 +31°C° 0 mm 2 mps 757 mmHg 32%
    13:00 +33°C° 0 mm 3 mps 757 mmHg 29%
    14:00 +31°C° 0 mm 3 mps 756 mmHg 30%
    15:00 +31°C° 0 mm 3 mps 756 mmHg 32%
    16:00 +30°C° 0 mm 2 mps 755 mmHg 34%
    17:00 +29°C° 0 mm 2 mps 755 mmHg 37%
    18:00 +28°C° 0 mm 2 mps 755 mmHg 40%
    19:00 +28°C° 0 mm 2 mps 755 mmHg 43%
    20:00 +27°C° 0 mm 2 mps 755 mmHg 44%
    21:00 +26°C° 0 mm 2 mps 755 mmHg 46%
    22:00 +26°C° 0 mm 2 mps 755 mmHg 47%
    23:00 +25°C° 0 mm 2 mps 755 mmHg 48%

    Tomorrow, 18 February, Monday

    Time Temperature Precipitation Wind Pressure Humidity
    00:00 +24°C° 0 mm 2 mps 754 mmHg 50%
    01:00 +24°C° 0 mm 3 mps 754 mmHg 52%
    02:00 +23°C° 0 mm 2 mps 754 mmHg 55%
    03:00 +22°C° 0 mm 1 mps 753 mmHg 59%
    04:00 +22°C° 0 mm 1 mps 753 mmHg 63%
    05:00 +22°C° 0.1 mm 1 mps 753 mmHg 63%
    06:00 +22°C° 0.1 mm 1 mps 754 mmHg 62%
    07:00 +21°C° 0.1 mm 2 mps 754 mmHg 62%
    08:00 +23°C° 0.3 mm 2 mps 754 mmHg 63%
    09:00 +23°C° 0.3 mm 2 mps 754 mmHg 64%
    10:00 +23°C° 0.3 mm 2 mps 755 mmHg 65%
    11:00 +25°C° 0.1 mm 2 mps 754 mmHg 57%
    12:00 +28°C° 0.1 mm 2 mps 754 mmHg 49%
    13:00 +30°C° 0.1 mm 2 mps 754 mmHg 41%
    14:00 +29°C° 0 mm 3 mps 753 mmHg 44%
    15:00 +28°C° 0 mm 5 mps 753 mmHg 46%
    16:00 +27°C° 0 mm 7 mps 752 mmHg 49%
    17:00 +24°C° 0 mm 6 mps 753 mmHg 53%
    18:00 +22°C° 0 mm 6 mps 753 mmHg 57%
    19:00 +20°C° 0 mm 5 mps 754 mmHg 62%
    20:00 +19°C° 0 mm 4 mps 755 mmHg 62%
    21:00 +19°C° 0 mm 4 mps 755 mmHg 63%
    22:00 +18°C° 0 mm 3 mps 756 mmHg 64%
    23:00 +17°C° 0 mm 3 mps 756 mmHg 65%

    Day after tomorrow, 19 February, Tuesday

    Time Temperature Precipitation Wind Pressure Humidity
    00:00 +17°C° 0 mm 3 mps 756 mmHg 67%
    01:00 +16°C° 0 mm 3 mps 756 mmHg 68%
    02:00 +16°C° 0 mm 3 mps 757 mmHg 68%
    03:00 +16°C° 0 mm 3 mps 757 mmHg 68%
    04:00 +16°C° 0 mm 3 mps 757 mmHg 67%
    05:00 +16°C° 0 mm 3 mps 757 mmHg 67%
    06:00 +16°C° 0 mm 3 mps 757 mmHg 67%
    07:00 +16°C° 0 mm 3 mps 758 mmHg 66%
    08:00 +17°C° 0 mm 3 mps 758 mmHg 61%
    09:00 +18°C° 0 mm 3 mps 758 mmHg 56%
    10:00 +19°C° 0 mm 3 mps 758 mmHg 51%
    11:00 +20°C° 0 mm 3 mps 758 mmHg 49%
    12:00 +20°C° 0 mm 4 mps 758 mmHg 47%
    13:00 +21°C° 0 mm 4 mps 758 mmHg 45%
    14:00 +21°C° 0 mm 4 mps 757 mmHg 44%
    15:00 +21°C° 0 mm 4 mps 757 mmHg 44%
    16:00 +21°C° 0 mm 5 mps 757 mmHg 43%
    17:00 +20°C° 0 mm 4 mps 757 mmHg 48%
    18:00 +19°C° 0 mm 4 mps 757 mmHg 52%
    19:00 +18°C° 0 mm 4 mps 758 mmHg 57%
    20:00 +17°C° 0 mm 4 mps 758 mmHg 59%
    21:00 +17°C° 0 mm 3 mps 759 mmHg 61%
    22:00 +16°C° 0 mm 3 mps 759 mmHg 63%
    23:00 +16°C° 0 mm 2 mps 759 mmHg 65%

    20 February, Wednesday

    Time Temperature Precipitation Wind Pressure Humidity
    00:00 +15°C° 0 mm 2 mps 759 mmHg 67%
    01:00 +15°C° 0 mm 2 mps 759 mmHg 69%
    02:00 +15°C° 0 mm 2 mps 759 mmHg 71%
    03:00 +14°C° 0 mm 2 mps 759 mmHg 72%
    04:00 +14°C° 0 mm 2 mps 759 mmHg 74%
    05:00 +14°C° 0 mm 2 mps 759 mmHg 73%
    06:00 +14°C° 0 mm 2 mps 759 mmHg 72%
    07:00 +15°C° 0 mm 2 mps 759 mmHg 71%
    08:00 +16°C° 0 mm 2 mps 759 mmHg 64%
    09:00 +18°C° 0 mm 2 mps 759 mmHg 58%
    10:00 +19°C° 0 mm 2 mps 759 mmHg 51%
    11:00 +21°C° 0 mm 3 mps 759 mmHg 48%
    12:00 +22°C° 0 mm 3 mps 758 mmHg 45%
    13:00 +24°C° 0 mm 3 mps 758 mmHg 41%
    14:00 +23°C° 0 mm 4 mps 758 mmHg 42%
    15:00 +23°C° 0 mm 4 mps 758 mmHg 42%
    16:00 +23°C° 0 mm 4 mps 757 mmHg 42%
    17:00 +22°C° 0 mm 4 mps 758 mmHg 46%
    18:00 +21°C° 0 mm 3 mps 758 mmHg 49%
    19:00 +20°C° 0 mm 3 mps 759 mmHg 53%
    20:00 +19°C° 0 mm 3 mps 759 mmHg 57%
    21:00 +19°C° 0 mm 3 mps 760 mmHg 62%
    22:00 +18°C° 0 mm 3 mps 760 mmHg 66%
    23:00 +18°C° 0 mm 3 mps 760 mmHg 69%

    21 February, Thursday

    Time Temperature Precipitation Wind Pressure Humidity
    00:00 +17°C° 0 mm 2 mps 760 mmHg 73%
    01:00 +16°C° 0 mm 2 mps 760 mmHg 76%
    02:00 +16°C° 0 mm 2 mps 760 mmHg 79%
    03:00 +16°C° 0 mm 2 mps 760 mmHg 81%
    04:00 +15°C° 0 mm 2 mps 760 mmHg 84%
    05:00 +16°C° 0.1 mm 3 mps 761 mmHg 83%
    06:00 +16°C° 0.1 mm 3 mps 761 mmHg 81%
    07:00 +16°C° 0.1 mm 3 mps 761 mmHg 80%
    08:00 +17°C° 0.1 mm 4 mps 762 mmHg 74%
    09:00 +18°C° 0.1 mm 4 mps 762 mmHg 68%
    10:00 +18°C° 0.1 mm 4 mps 763 mmHg 61%
    11:00 +19°C° 0 mm 4 mps 763 mmHg 57%
    12:00 +20°C° 0 mm 4 mps 762 mmHg 52%
    13:00 +21°C° 0 mm 5 mps 762 mmHg 47%
    14:00 +21°C° 0 mm 5 mps 762 mmHg 46%
    15:00 +21°C° 0 mm 5 mps 762 mmHg 46%
    16:00 +21°C° 0 mm 6 mps 762 mmHg 46%
    17:00 +19°C° 0 mm 6 mps 763 mmHg 50%
    18:00 +17°C° 0 mm 5 mps 763 mmHg 54%
    19:00 +16°C° 0 mm 5 mps 764 mmHg 58%
    20:00 +16°C° 0 mm 5 mps 764 mmHg 60%
    21:00 +15°C° 0 mm 4 mps 765 mmHg 62%
    22:00 +15°C° 0 mm 4 mps 765 mmHg 64%
    23:00 +14°C° 0 mm 4 mps 765 mmHg 66%

    22 February, Friday

    Time Temperature Precipitation Wind Pressure Humidity
    00:00 +14°C° 0 mm 4 mps 765 mmHg 68%
    01:00 +14°C° 0 mm 4 mps 765 mmHg 70%
    02:00 +14°C° 0 mm 4 mps 765 mmHg 70%
    03:00 +14°C° 0 mm 4 mps 765 mmHg 71%
    04:00 +14°C° 0 mm 4 mps 765 mmHg 72%
    05:00 +14°C° 0 mm 3 mps 765 mmHg 72%
    06:00 +14°C° 0 mm 3 mps 766 mmHg 73%
    07:00 +14°C° 0 mm 3 mps 766 mmHg 73%
    08:00 +16°C° 0 mm 3 mps 766 mmHg 64%
    09:00 +18°C° 0 mm 4 mps 766 mmHg 55%
    10:00 +20°C° 0 mm 4 mps 766 mmHg 46%
    11:00 +22°C° 0 mm 4 mps 766 mmHg 41%
    12:00 +25°C° 0 mm 4 mps 766 mmHg 36%
    13:00 +27°C° 0 mm 4 mps 765 mmHg 30%
    14:00 +27°C° 0 mm 4 mps 765 mmHg 30%
    15:00 +28°C° 0 mm 4 mps 765 mmHg 30%
    16:00 +28°C° 0 mm 5 mps 765 mmHg 30%
    17:00 +27°C° 0 mm 5 mps 765 mmHg 34%
    18:00 +26°C° 0 mm 5 mps 766 mmHg 39%
    19:00 +25°C° 0 mm 5 mps 766 mmHg 43%
    20:00 +22°C° 0 mm 5 mps 766 mmHg 49%
    21:00 +21°C° 0 mm 5 mps 767 mmHg 55%
    22:00 +19°C° 0 mm 4 mps 767 mmHg 61%
    23:00 +18°C° 0 mm 4 mps 767 mmHg 65%
    Show more